Regional Weather Roundup
Issued by NWS

Home | Current Version | Previous Version | Text Only | Print | Product List | Glossary On
Versions: 1 2 3 4 5 6 7 8 9 10 11 12 13 14 15 16 17 18 19 20 21 22 23 24 25 26 27 28 29 30 31 32 33 34 35 36 37 38 39 40 41 42 43 44 45 46 47 48 49 50
000
ASUS43 KDMX 251008
RWRIA

WEATHER ROUNDUP FOR IOWA
NATIONAL WEATHER SERVICE DES MOINES IA
500 AM CDT SUN SEP 25 2016

NOTE: "FAIR" INDICATES FEW OR NO CLOUDS BELOW 12,000 FEET WITH NO
SIGNIFICANT WEATHER AND/OR OBSTRUCTIONS TO VISIBILITY.

* - THESE STATIONS ARE NOT NWS STATIONS...THUS NOT UNDER NWS
QUALITY CONTROL.  THEY ALSO DO NOT REPORT WEATHER SUCH
AS PRECIPITATION OR FOG.

IAZ001>003-012>014-020>022-031>034-043>046-251100-
   NORTHWEST IOWA

CITY           SKY/WX    TMP DP  RH WIND       PRES   REMARKS
CARROLL *      CLOUDY    68  68 100 SW12      29.96R FOG
CHEROKEE *     LGT RAIN  58  54  88 W3        29.99R
DENISON *      CLOUDY    66  66 100 W3        29.97R
LE MARS *      CLOUDY    57  50  77 W5        30.02R
ORANGE CITY *  MOCLDY    55  52  88 W10       29.99S
SHELDON *      CLOUDY    57  54  88 W7        29.97R
SIOUX CITY     CLOUDY    59  51  75 W9        30.02R
SPENCER        LGT RAIN  63  62  97 SW8       29.96R
STORM LAKE *   CLOUDY    59  55  88 W16G25    29.98R
$$

IAZ055>058-069>071-079>083-090>094-251100-
   SOUTHWEST IOWA

CITY           SKY/WX    TMP DP  RH WIND       PRES   REMARKS
ATLANTIC *     HVY RAIN  68  66  94 S7        29.97S
AUDUBON *      RAIN      68  64  88 SW7       29.99R
CLARINDA *       N/A     68  68 100 MISG      30.01S
COUNCIL BLFS * CLOUDY    64  64 100 W18G30    30.01R
CRESTON *      CLOUDY    66  66 100 SW8       30.00S
HARLAN  *      DRIZZLE   66  66 100 SW3       30.02S
LAMONI         MOCLDY    68  67  96 S10       29.99S
RED OAK *      HVY RAIN  66  66 100 VRB6G12   30.00R
SHENANDOAH *   CLOUDY    64  64 100 W8        30.02R
$$

IAZ047>049-059>061-072>074-084-251100-
   CENTRAL IOWA

CITY           SKY/WX    TMP DP  RH WIND       PRES   REMARKS
AMES           CLOUDY    69  69 100 SW10      29.97R
ANKENY *         N/A    N/A N/A N/A MISG        N/A
BOONE *        CLOUDY    68  68 100 S8        29.96S
CHARITON *       N/A     68  68 100 SE6       29.97F FOG
DES MOINES     CLOUDY    70  68  93 SW5       29.95F
GRINNELL*      CLOUDY    68  66  94 E5        29.98F
KNOXVILLE *    CLOUDY    68  66  94 SE5       29.96S
MARSHALLTOWN   CLOUDY    68  68 100 SE9       29.95F
NEWTON *       CLOUDY    68  66  94 S6        29.96S
PELLA *        CLOUDY    68  67  95 CALM      29.98F
PERRY *          N/A     68  68 100 S6        29.96F
$$

IAZ004>006-015-016-023>025-035-036-251100-
   NORTH CENTRAL IOWA

CITY           SKY/WX    TMP DP  RH WIND       PRES   REMARKS
ALGONA *       DRIZZLE   68  66  94 S8        29.94F
CLARION *      CLOUDY    68  68 100 S8        29.95S
ESTHERVILLE    LGT RAIN  63  63 100 W3        29.93F
FORT DODGE *   CLOUDY    68  64  88 S10       29.96R
MASON CITY     LGT RAIN  68  67  96 S9        29.95F FOG
FOREST CITY *  MOCLDY    64  64 100 S6        29.93F
WEBSTER CITY * CLOUDY    68  68 100 S10       29.94S
IOWA FALLS *   CLOUDY    68  67  96 SE8       29.95F
$$

IAZ007>011-017>019-026>030-037>042-050>054-066-251100-
   NORTHEAST IOWA

CITY           SKY/WX    TMP DP  RH WIND       PRES   REMARKS
CEDAR RAPIDS   CLOUDY    68  68 100 CALM      29.99F FOG
CHARLES CITY * CLOUDY    68  68 100 S8G15     29.96F FOG
CLINTON *      PTCLDY    67  65  93 SE12      30.03F
DECORAH *      LGT RAIN  64  64 100 SE6G13    29.98F
DUBUQUE        PTCLDY    65  63  93 SE13      30.02F FOG
MONTICELLO *   CLOUDY    66  64  94 CALM      30.01R FOG
OELWEIN *      CLOUDY    68  66  94 SE9       29.98F FOG
WATERLOO       CLOUDY    69  67  93 SE9       29.95F FOG
$$

IAZ064-065-067-068-078-251100-
   EAST CENTRAL IOWA

CITY           SKY/WX    TMP DP  RH WIND       PRES   REMARKS
DAVENPORT      PTCLDY    67  65  93 SE7       30.02F
IOWA CITY      PTCLDY    68  66  93 CALM      30.01F
MT. PLEASANT * CLOUDY    73  68  86 SE5       30.00S
MUSCATINE *    MOCLDY    66  64  94 CALM      30.00F
QUAD CITIES    CLOUDY    69  65  86 SE7       30.01F
$$

IAZ062-063-075>077-085>089-095>099-251100-
   SOUTHEAST IOWA

CITY           SKY/WX    TMP DP  RH WIND       PRES   REMARKS
BURLINGTON     CLOUDY    71  67  87 S6        30.00F
FAIRFIELD *    CLOUDY    68  64  88 S6        29.99S
FORT MADISON * PTCLDY    72  66  83 S7        30.01F
KEOKUK *       PTCLDY    72  66  83 SE6       30.00S
OSKALOOSA *      N/A     66  65  97 E6        29.98F
CENTERVILLE *    N/A     66  66 100 CALM      30.00S
OTTUMWA        MOCLDY    68  65  90 NE5       29.98F
WASHINGTON *     N/A    N/A N/A N/A MISG        N/A
$$

ABBREVIATIONS USED IN REMARKS
   TC - TEMPERATURES IN CELSIUS
  WCI - WIND CHILL INDEX
   HX - HEAT INDEX
  VSB - VISIBILITY
$$





USA.gov is the U.S. government's official web portal to all federal, state and local government web resources and services.